Newport Airport, OR

10:17 PM PDT on June 28, 2017 (GMT -0700)
Newport Municipal

Weather History for KONP - November, 2010

Change the Weather History Date:

Sunday, November 21, 2010

  Actual Average Record
Temperature  
Mean Temperature 36 °F -  
Max Temperature 42 °F 52 °F 62 °F (2005)
Min Temperature 30 °F 43 °F 26 °F (2013)
Degree Days  
Heating Degree Days 29    
Moisture  
Dew Point 35 °F    
Average Humidity 94    
Maximum Humidity 100    
Minimum Humidity 76    
Precipitation  
Precipitation 0.24 in - - ()
Sea Level Pressure  
Sea Level Pressure 29.76 in    
Wind  
Wind Speed 5 mph (ESE)    
Max Wind Speed 21 mph    
Max Gust Speed 32 mph    
Visibility 8 miles    
Events Rain    
Averages and records for this station are not official NWS values.
T = Trace of Precipitation, MM = Missing Value Source: NWS Daily Summary

Daily Weather History Graph

Daily Weather History Graph

Search for Another Location

Airport or City:

Trip Planner

Search our weather history database for the weather conditions in past years. The results will help you decide how hot, cold, wet, or windy it might be!

Date:

Astronomy

Nov. 21, 2010 Rise Set
Actual Time 7:20 AM PST 4:43 PM PST
Civil Twilight 6:48 AM PST 5:15 PM PST
Nautical Twilight 6:12 AM PST 5:50 PM PST
Astronomical Twilight 5:38 AM PST 6:25 PM PST
Moon 4:34 PM PST (11/21) 7:31 AM PST (11/21)
Length of Visible Light 10h 26m
Length of Day
9h 22m
Full, 100% of the Moon is Illuminated
Nov 21
Full
Nov 28
Last Quarter
Dec 5
New
Dec 13
First Quarter
Dec 21
Full

Hourly Weather History & Observations

Time (PST) Temp. Windchill Dew Point Humidity Pressure Visibility Wind Dir Wind Speed Gust Speed Precip Events Conditions
12:11 AM 33.8 °F 28.6 °F 33.8 °F 100% 29.71 in 7.0 mi East 5.8 mph - N/A   Clear
12:31 AM 33.8 °F 27.7 °F 33.8 °F 100% 29.71 in 7.0 mi East 6.9 mph - N/A   Clear
12:51 AM 33.8 °F 29.6 °F 33.8 °F 100% 29.71 in 7.0 mi East 4.6 mph - N/A   Clear
1:11 AM 33.8 °F - 33.8 °F 100% 29.71 in 10.0 mi Calm Calm - N/A   Clear
1:31 AM 33.8 °F 30.8 °F 33.8 °F 100% 29.71 in 7.0 mi East 3.5 mph - N/A   Clear
1:51 AM 33.8 °F 28.6 °F 33.8 °F 100% 29.72 in 7.0 mi East 5.8 mph - N/A   Clear
2:11 AM 33.8 °F - 33.8 °F 100% 29.72 in 10.0 mi Calm Calm - N/A   Clear
2:31 AM 33.8 °F 28.6 °F 33.8 °F 100% 29.72 in 10.0 mi East 5.8 mph - N/A   Clear
2:51 AM 32.0 °F 25.6 °F 32.0 °F 100% 29.73 in 7.0 mi East 6.9 mph - N/A   Clear
3:11 AM 32.0 °F 27.5 °F 32.0 °F 100% 29.73 in 7.0 mi East 4.6 mph - N/A   Clear
3:32 AM 32.0 °F 24.8 °F 32.0 °F 100% 29.73 in 5.0 mi ESE 8.1 mph - N/A   Clear
3:51 AM 32.0 °F 28.7 °F 32.0 °F 100% 29.74 in 5.0 mi East 3.5 mph - N/A   Clear
4:11 AM 32.0 °F 26.4 °F 32.0 °F 100% 29.74 in 5.0 mi East 5.8 mph - N/A   Clear
4:31 AM 30.2 °F 25.4 °F 30.2 °F 100% 29.74 in 10.0 mi East 4.6 mph - N/A   Clear
4:52 AM 32.0 °F - 30.2 °F 93% 29.75 in 10.0 mi Calm Calm - N/A   Clear
5:11 AM 32.0 °F 27.5 °F 30.2 °F 93% 29.75 in 10.0 mi East 4.6 mph - N/A   Clear
5:31 AM 30.2 °F 25.4 °F 30.2 °F 100% 29.76 in 10.0 mi East 4.6 mph - N/A   Clear
5:51 AM 30.2 °F 23.4 °F 30.2 °F 100% 29.76 in 10.0 mi East 6.9 mph - N/A   Clear
6:11 AM 30.2 °F 23.4 °F 30.2 °F 100% 29.76 in 10.0 mi East 6.9 mph - N/A   Clear
6:31 AM 30.2 °F 26.7 °F 30.2 °F 100% 29.77 in 7.0 mi East 3.5 mph - N/A   Clear
6:51 AM 30.2 °F 26.7 °F 30.2 °F 100% 29.77 in 10.0 mi East 3.5 mph - N/A   Clear
7:11 AM 30.2 °F - 30.2 °F 100% 29.77 in 10.0 mi Calm Calm - N/A   Clear
7:31 AM 30.2 °F - 30.2 °F 100% 29.78 in 10.0 mi Calm Calm - N/A   Clear
7:51 AM 30.2 °F - 30.2 °F 100% 29.79 in 10.0 mi Calm Calm - N/A   Clear
8:11 AM 32.0 °F 28.7 °F 30.2 °F 93% 29.79 in 10.0 mi East 3.5 mph - N/A   Clear
8:31 AM 32.0 °F 28.7 °F 32.0 °F 100% 29.79 in 10.0 mi ESE 3.5 mph - N/A   Clear
8:52 AM 33.8 °F - 33.8 °F 100% 29.80 in 10.0 mi Calm Calm - N/A   Clear
9:11 AM 35.6 °F - 35.6 °F 100% 29.80 in 10.0 mi Calm Calm - N/A   Clear
9:31 AM 37.4 °F - 37.4 °F 100% 29.80 in 10.0 mi Calm Calm - N/A   Clear
9:51 AM 41.0 °F - 39.2 °F 93% 29.80 in 10.0 mi Calm Calm - N/A   Clear
10:11 AM 42.8 °F - 39.2 °F 87% 29.80 in 10.0 mi Calm Calm - N/A   Scattered Clouds
10:31 AM 42.8 °F 36.2 °F 39.2 °F 87% 29.81 in 10.0 mi West 12.7 mph 19.6 mph N/A   Mostly Cloudy
10:51 AM 39.2 °F - 37.4 °F 93% 29.81 in 4.0 mi Calm Calm - 0.04 in Rain Light Rain
11:11 AM 39.2 °F 35.9 °F 37.4 °F 93% 29.80 in 5.0 mi SSE 4.6 mph - 0.01 in Rain Light Rain
11:31 AM 41.0 °F 39.0 °F 39.2 °F 93% 29.79 in 10.0 mi SSW 3.5 mph - 0.01 in   Overcast
11:51 AM 41.0 °F 33.1 °F 37.4 °F 87% 29.79 in 4.0 mi NW 15.0 mph 24.2 mph 0.04 in Rain Rain
12:11 PM 42.8 °F 38.6 °F 37.4 °F 81% 29.77 in 7.0 mi NW 6.9 mph - 0.01 in Rain Light Rain
12:31 PM 42.8 °F 40.1 °F 37.4 °F 81% 29.76 in 10.0 mi WNW 4.6 mph - 0.01 in   Overcast
12:51 PM 42.8 °F 38.6 °F 39.2 °F 87% 29.76 in 10.0 mi West 6.9 mph - 0.01 in   Overcast
1:31 PM 42.8 °F 34.0 °F 39.2 °F 87% 29.77 in 7.0 mi WNW 20.7 mph 32.2 mph N/A   Drizzle
1:51 PM 42.8 °F 35.4 °F 37.4 °F 81% 29.77 in 10.0 mi WNW 15.0 mph 24.2 mph N/A   Light Drizzle
2:12 PM 41.0 °F 33.5 °F 37.4 °F 87% 29.77 in 5.0 mi WNW 13.8 mph - 0.01 in Rain Rain
2:31 PM 41.0 °F 37.1 °F 37.4 °F 87% 29.76 in 10.0 mi WNW 5.8 mph - 0.01 in   Light Drizzle
2:51 PM 42.8 °F 38.0 °F 37.4 °F 81% 29.76 in 10.0 mi WNW 8.1 mph - 0.01 in   Overcast
3:11 PM 42.8 °F 35.4 °F 35.6 °F 76% - 10.0 mi NW 15.0 mph 21.9 mph N/A   Overcast
3:31 PM 41.0 °F 34.3 °F 37.4 °F 87% 29.76 in 4.0 mi West 11.5 mph 26.5 mph N/A Rain Rain
3:51 PM 41.0 °F 33.1 °F 37.4 °F 87% 29.76 in 7.0 mi NW 15.0 mph 19.6 mph N/A Rain Rain
4:11 PM 39.2 °F 32.0 °F 37.4 °F 93% 29.76 in 7.0 mi NW 11.5 mph - N/A Rain Rain
4:51 PM 39.2 °F 35.9 °F 35.6 °F 87% - 10.0 mi WSW 4.6 mph - N/A Rain Light Rain
5:11 PM 39.2 °F 35.0 °F 35.6 °F 87% - 10.0 mi SSW 5.8 mph - N/A   Scattered Clouds
5:31 PM 39.2 °F 34.2 °F 37.4 °F 93% - 10.0 mi South 6.9 mph - N/A   Mostly Cloudy
5:51 PM 39.2 °F 34.2 °F 37.4 °F 93% - 10.0 mi South 6.9 mph - N/A   Mostly Cloudy
6:11 PM 39.2 °F 34.2 °F 37.4 °F 93% 29.76 in 10.0 mi South 6.9 mph - N/A   Overcast
6:31 PM 39.2 °F 35.0 °F 37.4 °F 93% 29.77 in 10.0 mi South 5.8 mph - N/A   Light Drizzle
6:51 PM 39.2 °F 37.0 °F 37.4 °F 93% 29.77 in 5.0 mi North 3.5 mph - 0.03 in Rain Rain
7:11 PM 39.2 °F 37.0 °F 37.4 °F 93% 29.77 in 5.0 mi ESE 3.5 mph - 0.03 in Rain Rain
7:32 PM 39.2 °F - 37.4 °F 93% 29.77 in 10.0 mi Calm Calm - 0.04 in   Light Drizzle
7:51 PM 39.2 °F 35.9 °F 37.4 °F 93% 29.78 in 10.0 mi South 4.6 mph - 0.04 in   Light Drizzle
8:12 PM 41.0 °F 36.4 °F 39.2 °F 93% - 5.0 mi West 6.9 mph - 0.01 in Rain Heavy Rain
8:31 PM 41.0 °F 36.4 °F 39.2 °F 93% - 5.0 mi West 6.9 mph - 0.03 in Rain Light Rain
8:52 PM 41.0 °F 37.1 °F 39.2 °F 93% 29.80 in 5.0 mi NNW 5.8 mph - 0.04 in Rain Light Rain
9:11 PM 39.2 °F 31.2 °F 37.4 °F 93% 29.80 in 5.0 mi NNW 13.8 mph 18.4 mph 0.02 in Rain Rain
9:31 PM 39.2 °F 37.0 °F 37.4 °F 93% 29.79 in 10.0 mi WNW 3.5 mph - 0.03 in Rain Light Rain
9:51 PM 39.2 °F 34.2 °F 37.4 °F 93% 29.82 in 7.0 mi WNW 6.9 mph - 0.04 in   Mostly Cloudy
10:11 PM 39.2 °F - 37.4 °F 93% 29.82 in 7.0 mi Calm Calm - 0.01 in   Overcast
10:31 PM 39.2 °F 35.9 °F 37.4 °F 93% 29.82 in 7.0 mi West 4.6 mph - 0.01 in Rain Light Rain
10:51 PM 44.6 °F 36.9 °F 35.6 °F 71% - 10.0 mi NW 18.4 mph 25.3 mph 0.01 in   Overcast
11:11 PM 44.6 °F 38.1 °F 32.0 °F 61% - 10.0 mi WNW 13.8 mph 21.9 mph N/A   Mostly Cloudy
11:31 PM 44.6 °F 36.9 °F 35.6 °F 71% - 10.0 mi NNW 18.4 mph 25.3 mph N/A   Mostly Cloudy
11:51 PM 44.6 °F 36.1 °F 33.8 °F 66% - 10.0 mi NW 21.9 mph 26.5 mph N/A   Overcast